Regional Weather Roundup
Issued by NWS

Home | Current Version | Previous Version | Text Only | Print | Product List | Glossary Off
Versions: 1 2 3 4 5 6 7 8 9 10 11 12 13 14 15 16 17 18 19 20 21 22 23 24 25 26 27 28 29 30 31 32 33 34 35 36 37 38 39 40 41 42 43 44 45 46 47 48

000
ASUS43 KDMX 281507
RWRIA

WEATHER ROUNDUP FOR IOWA
NATIONAL WEATHER SERVICE DES MOINES IA
1000 AM CDT TUE APR 28 2015

NOTE: "FAIR" INDICATES FEW OR NO CLOUDS BELOW 12,000 FEET WITH NO
SIGNIFICANT WEATHER AND/OR OBSTRUCTIONS TO VISIBILITY.

* - THESE STATIONS ARE NOT NWS STATIONS...THUS NOT UNDER NWS
QUALITY CONTROL.  THEY ALSO DO NOT REPORT WEATHER SUCH
AS PRECIPITATION OR FOG.

IAZ001>003-012>014-020>022-031>034-043>046-281600-
   NORTHWEST IOWA

CITY           SKY/WX    TMP DP  RH WIND       PRES   REMARKS
CARROLL *      SUNNY     64  36  34 N9        30.19S
CHEROKEE *     SUNNY     57  41  54 NW3       30.20S
DENISON *      SUNNY     63  37  39 N8        30.18F
LE MARS *      SUNNY     55  32  41 N5        30.22F
ORANGE CITY *  MOSUNNY   57  39  51 CALM      30.21S
SHELDON *      PTSUNNY   59  41  51 N8        30.19S
SIOUX CITY     SUNNY     56  41  57 NW12      30.22F
SPENCER        MOSUNNY   62  42  47 N7        30.19F
STORM LAKE *   SUNNY     63  32  31 N7        30.19F
$$

IAZ055>058-069>071-079>083-090>094-281600-
   SOUTHWEST IOWA

CITY           SKY/WX    TMP DP  RH WIND       PRES   REMARKS
ATLANTIC *     SUNNY     61  39  44 N8        30.20S
AUDUBON *      SUNNY     63  37  39 NW8       30.21S
CLARINDA *     SUNNY     61  41  48 VRB5      30.21S
COUNCIL BLFS * SUNNY     61  37  41 N8        30.21F
CRESTON *      SUNNY     63  39  42 N8        30.19S
HARLAN  *      SUNNY     63  36  36 NW12      30.23F
LAMONI         SUNNY     63  42  46 CALM      30.17S
RED OAK *      SUNNY     63  41  45 N8        30.20S
SHENANDOAH *   SUNNY     61  41  48 VRB6      30.21S
$$

IAZ047>049-059>061-072>074-084-281600-
   CENTRAL IOWA

CITY           SKY/WX    TMP DP  RH WIND       PRES   REMARKS
AMES           SUNNY     61  39  44 N8        30.17F
ANKENY *       SUNNY     63  39  42 CALM      30.17F
CHARITON *     SUNNY     61  41  48 N7        30.17S
DES MOINES     MOSUNNY   63  38  39 NW8       30.18S
GRINNELL*      SUNNY     64  34  32 NW8       30.16S
KNOXVILLE *    SUNNY     61  39  44 NW7       30.15F
MARSHALLTOWN   SUNNY     63  38  39 NW9       30.15F
PELLA *        SUNNY     64  46  52 N7        30.17F
PERRY *          N/A     63  34  34 N8        30.18F
$$

IAZ004>006-015-016-023>025-035-036-281600-
   NORTH CENTRAL IOWA

CITY           SKY/WX    TMP DP  RH WIND       PRES   REMARKS
ALGONA *       SUNNY     61  37  41 N7        30.18F
CLARION *      SUNNY     63  30  29 N10       30.17F
ESTHERVILLE    MOSUNNY   60  40  47 N10       30.17F
FORT DODGE *   SUNNY     63  36  36 NW7       30.19F
MASON CITY     SUNNY     63  35  35 N6        30.18F
FOREST CITY *  SUNNY     61  32  33 NW7       30.16F
IOWA FALLS *     N/A     64  32  29 NW10G18   30.18S
$$

IAZ007>011-017>019-026>030-037>042-050>054-066-281600-
   NORTHEAST IOWA

CITY           SKY/WX    TMP DP  RH WIND       PRES   REMARKS
CEDAR RAPIDS   SUNNY     61  39  44 N10       30.13S
CHARLES CITY * SUNNY     59  34  38 N8        30.16F
CLINTON *      SUNNY     54  39  58 S6        30.16F
DECORAH *      SUNNY     55  37  50 VRB3      30.14F
DUBUQUE        SUNNY     54  41  61 N7        30.14S
MONTICELLO *   SUNNY     55  43  62 NE3       30.14S
OELWEIN *      SUNNY     59  37  44 NE6       30.15F
WATERLOO       SUNNY     61  39  44 N6        30.15F
$$

IAZ064-065-067-068-078-281600-
   EAST CENTRAL IOWA

CITY           SKY/WX    TMP DP  RH WIND       PRES   REMARKS
DAVENPORT      SUNNY     56  38  50 S3        30.14F
IOWA CITY      SUNNY     61  38  42 NW10      30.14F
MT. PLEASANT * SUNNY     61  39  44 NW6       30.14F
MUSCATINE *    SUNNY     63  37  39 NW7       30.13S
QUAD CITIES    SUNNY     58  39  49 CALM      30.13F
$$

IAZ062-063-075>077-085>089-095>099-281600-
   SOUTHEAST IOWA

CITY           SKY/WX    TMP DP  RH WIND       PRES   REMARKS
BURLINGTON     SUNNY     62  40  44 N9        30.13F
FAIRFIELD *    SUNNY     63  37  39 NW8       30.15S
FORT MADISON * SUNNY     61  39  44 NW12      30.14F
KEOKUK *       SUNNY     61  41  48 N7        30.13F
OSKALOOSA *      N/A     63  39  42 N8        30.15S
CENTERVILLE *  SUNNY     63  41  45 MISG        N/A
OTTUMWA        SUNNY     63  42  46 NW7       30.15S
WASHINGTON *   SUNNY     63  43  48 NW10G16   30.14S
$$

ABBREVIATIONS USED IN REMARKS
   TC - TEMPERATURES IN CELSIUS
  WCI - WIND CHILL INDEX
   HX - HEAT INDEX
  VSB - VISIBILITY
$$




USA.gov is the U.S. government's official web portal to all federal, state and local government web resources and services.